Weather History for Mobridge, SD

Change the Weather History Date:

Monday, April 7, 2014

  Actual Average Record
Temperature  
Mean Temperature 40 °F 42 °F  
Max Temperature 53 °F 54 °F 86 °F (1988)
Min Temperature 27 °F 29 °F 2 °F (2008)
Degree Days  
Heating Degree Days 25 23  
Month to date heating degree days 223 173  
Since 1 July heating degree days 7907 7175  
Cooling Degree Days 0 0  
Month to date cooling degree days 0 0  
Year to date cooling degree days 0 0  
Moisture  
Dew Point 31 °F    
Average Humidity 71    
Maximum Humidity 92    
Minimum Humidity 50    
Precipitation  
Precipitation 0.02 in 0.03 in 0.95 in (1980)
Month to date precipitation 0.31 0.21  
Year to date precipitation 1.43 1.84  
Snow  
Snow 0.00 in - - ()
Month to date snowfall 3.5  
Since 1 July snowfall 44.3  
Snow Depth 0.00 in    
Sea Level Pressure  
Sea Level Pressure 29.97 in    
Wind  
Wind Speed 9 mph (NNW)    
Max Wind Speed 31 mph    
Max Gust Speed 40 mph    
Visibility 10 miles    
Events Rain , Thunderstorm    
T = Trace of Precipitation, MM = Missing Value Source: NWS Daily Summary

Daily Weather History Graph

Daily Weather History Graph

Search for Another Location

Airport:

Trip Planner

Search our weather history database for the weather conditions in past years. The results will help you decide how hot, cold, wet, or windy it might be!

Date:

Astronomy

Apr. 07, 2014 Rise Set
Actual Time 7:10 AM CDT 8:17 PM CDT
Civil Twilight 6:40 AM CDT 8:48 PM CDT
Nautical Twilight 6:03 AM CDT 9:24 PM CDT
Astronomical Twilight 5:25 AM CDT 10:03 PM CDT
Moon 1:00 PM CDT (4/7) 3:04 AM CDT (4/7)
Length of Visible Light 14h 07m
Length of Day
13h 07m
First Quarter, 53% of the Moon is Illuminated
Apr 7
First Quarter
Apr 15
Full
Apr 22
Last Quarter
Apr 29
New
May 6
First Quarter

Hourly Weather History & Observations

Time (CDT) Temp. Windchill Dew Point Humidity Pressure Visibility Wind Dir Wind Speed Gust Speed Precip Events Conditions
12:52 AM 34.0 °F 28.8 °F 27.0 °F 75% 29.86 in 10.0 mi North 5.8 mph - N/A   Clear
1:52 AM 30.9 °F - 27.0 °F 85% 29.86 in 10.0 mi Calm Calm - N/A   Clear
2:52 AM 28.9 °F - 26.1 °F 89% 29.86 in 10.0 mi Calm Calm - N/A   Clear
3:52 AM 30.9 °F 27.5 °F 26.1 °F 82% 29.86 in 10.0 mi North 3.5 mph - N/A   Clear
4:52 AM 30.0 °F - 27.0 °F 88% 29.87 in 10.0 mi Calm Calm - N/A   Clear
5:52 AM 28.9 °F 23.9 °F 26.1 °F 89% 29.88 in 10.0 mi North 4.6 mph - N/A   Clear
6:52 AM 28.0 °F 22.8 °F 26.1 °F 92% 29.91 in 10.0 mi NNW 4.6 mph - N/A   Clear
7:52 AM 30.0 °F 24.1 °F 28.0 °F 92% 29.94 in 10.0 mi North 5.8 mph - N/A   Clear
8:52 AM 35.1 °F 25.9 °F 30.9 °F 85% 29.98 in 10.0 mi NW 13.8 mph - N/A   Clear
9:52 AM 37.9 °F 30.9 °F 32.0 °F 79% 29.99 in 10.0 mi NNW 10.4 mph - N/A   Clear
10:52 AM 46.9 °F - 35.1 °F 63% 29.99 in 10.0 mi NW 16.1 mph - N/A   Clear
11:52 AM 50.0 °F - 33.1 °F 52% 29.99 in 10.0 mi North 18.4 mph - N/A   Clear
12:52 PM 50.0 °F - 35.1 °F 57% 29.99 in 10.0 mi NW 19.6 mph - N/A   Overcast
1:52 PM 48.9 °F - 35.1 °F 59% 30.00 in 10.0 mi WNW 15.0 mph - N/A   Overcast
2:52 PM 48.9 °F - 35.1 °F 59% 30.00 in 10.0 mi North 24.2 mph 28.8 mph N/A   Mostly Cloudy
3:21 PM 45.0 °F 40.1 °F 36.0 °F 71% 29.95 in 10.0 mi North 9.2 mph - 0.00 in Thunderstorm Thunderstorm
3:36 PM 51.1 °F - 35.1 °F 54% 29.95 in 10.0 mi North 13.8 mph - 0.00 in   Mostly Cloudy
3:52 PM 46.9 °F - 35.1 °F 63% 30.00 in 10.0 mi North 9.2 mph - 0.00 in Rain Light Rain
4:52 PM 46.0 °F 39.9 °F 34.0 °F 63% 30.01 in 10.0 mi NNW 13.8 mph 24.2 mph 0.02 in Rain Light Rain
5:52 PM 48.9 °F - 35.1 °F 59% 29.99 in 10.0 mi NNW 11.5 mph - 0.00 in   Mostly Cloudy
6:52 PM 48.9 °F - 30.9 °F 50% 30.00 in 10.0 mi NNW 17.3 mph 23.0 mph N/A   Mostly Cloudy
7:50 PM 44.6 °F 38.8 °F 32.0 °F 61% 29.97 in 10.0 mi North 11.5 mph - 0.00 in Rain Light Rain
7:52 PM 44.1 °F 38.6 °F 32.0 °F 63% 30.02 in 10.0 mi North 10.4 mph - 0.00 in Rain Light Rain
8:52 PM 36.0 °F 31.1 °F 28.9 °F 76% 30.04 in 10.0 mi NNW 5.8 mph - 0.00 in   Clear
9:52 PM 35.1 °F 31.0 °F 28.0 °F 76% 30.06 in 10.0 mi NNW 4.6 mph - N/A   Scattered Clouds
10:52 PM 33.1 °F 28.7 °F 28.0 °F 82% 30.05 in 10.0 mi North 4.6 mph - N/A   Overcast
11:52 PM 35.1 °F 31.0 °F 28.0 °F 76% 30.06 in 10.0 mi NW 4.6 mph - N/A   Overcast